Погода в Жундиаи

Бразилия     23°11′03″S   46°52′49″W
темп.,
°C
ветер,
м/с
пор.,
м/с
влажн.,
%
обл.,
%
осадки,
мм/ч
давл.,
гПа
погр.,
м
27 февраля, сб
сб2700:00+17вюв239938 0.7 1014132
03:00+17вюв129957 0.7 101356
06:00+16вюв12985 0.0 101427
09:00+22всв12773 0.0 1015455
12:00+23всв128210 3.8 1014698
15:00+24в23835 8.8 1012707
18:00+20в279298 6.1 1012307
21:00+18вюв269699 8.3 1014254
28 февраля, вс
вс2800:00+18юв1297100 0.6 101492
03:00+18вюв1296100 0.7 101352
06:00+17вюв129689 0.0 101446
09:00+22св267694 0.0 1015633
12:00+26с365553 0.1 10141445
15:00+25ссв246826 1.5 1012931
18:00+22вюв118052 1.2 101225
21:00+19вюв228865 1.3 101351
1 марта, пн
пн100:00+18в229077 0.0 101358
03:00+17в239354 0.0 101284
06:00+17всв129255 0.0 101346
09:00+23ссв377264 0.0 1014677
12:00+25с356833 2.1 10131182
15:00+26ссв236552 3.3 10111299
18:00+23ссв128033 1.1 101131
21:00+20в128667 1.2 101324
2 марта, вт
вт200:00+19в128883 0.0 101331
03:00+18в129183 0.0 101233
06:00+18всв2292100 0.0 101446
09:00+23ссв3672100 0.0 1015598
12:00+27ссз345687 0.1 10141369
15:00+25ссв238065 3.9 1012759
18:00+22ссв129188 4.6 101226
21:00+20в129389 10.8 101427
3 марта, ср
ср300:00+19в1291100 0.4 101528
03:00+19св1192100 0.4 101423
06:00+19св1197100 2.7 101524
09:00+21ссв1391100 5.8 1017234
12:00+25ссз366492 0.4 10161252
15:00+27сз245872 1.1 10141289
18:00+23з1179100 0.3 101326
21:00+20ююз1192100 2.4 101523